Regional Weather Roundup
Issued by NWS

Home | Current Version | Previous Version | Graphics & Text | Print | Product List | Glossary On
Versions: 1 2 3 4 5 6 7 8 9 10 11 12 13 14 15 16 17 18 19 20 21 22 23 24 25 26 27 28 29 30 31 32 33 34 35 36 37 38 39 40 41 42 43 44 45 46 47 48 49 50
751
ASUS43 KOAX 101510
RWRNE

WEATHER ROUNDUP FOR NEBRASKA
NATIONAL WEATHER SERVICE OMAHA NE
900 AM CST WED FEB 10 2016

NOTES: SATELLITE DATA IS BEING USED TO AUGMENT CLOUD COVER ABOVE
       12000 FEET.
       "FAIR" INDICATES FEW OR NO CLOUDS BELOW 12,000 FEET WITH NO
       SIGNIFICANT WEATHER AND/OR OBSTRUCTIONS TO VISIBILITY.

  * THESE STATIONS DO NOT REPORT WEATHER SUCH AS RAIN...SNOW OR FOG.

NEZ001>004-019>022-054>056-101600-
NEBRASKA PANHANDLE

CITY           SKY/WX    TMP DP  RH WIND       PRES   REMARKS
SCOTTSBLUFF    CLEAR     39  25  57 NW15      30.04S WCI  31
ALLIANCE       CLOUDY    31  23  72 W14       30.00S WCI  21
CHADRON        CLOUDY    43  24  47 SW9       30.01R
KIMBALL        SUNNY     41  24  49 W20       30.08R
SIDNEY         CLOUDY    41  25  53 NW13      30.04R
$$

NEZ057>060-069>072-079>082-101600-
SOUTHWEST NEBRASKA

CITY           SKY/WX    TMP DP  RH WIND       PRES   REMARKS
NORTH PLATTE   CLOUDY    31  24  75 W7        29.95F WCI  24
IMPERIAL       CLOUDY    37  23  56 W15       30.01S WCI  28
LEXINGTON      CLOUDY    28  23  82 W7        29.94S WCI  21
MCCOOK         CLOUDY    33  24  69 W15       29.99S WCI  23
OGALLALA       CLOUDY    30  23  73 W12       30.01S WCI  21
$$

NEZ005>010-023>029-035>040-094-101600-
NORTH CENTRAL NEBRASKA

CITY           SKY/WX    TMP DP  RH WIND       PRES   REMARKS
VALENTINE      SUNNY     36  27  69 W5        29.88S WCI  32
AINSWORTH      SUNNY     38  29  71 W10       29.88S WCI  31
BROKEN BOW     SUNNY     36  26  67 CALM      29.90R
O`NEILL        CLOUDY    32  28  85 NW6       29.87S WCI  27
ORD            CLOUDY    23  21  92 CALM      29.89S
THEDFORD       SUNNY     40  30  65 W12       29.91R WCI  33
$$

NEZ041-046>049-061>064-073>077-083>087-101600-
SOUTH CENTRAL NEBRASKA

CITY           SKY/WX    TMP DP  RH WIND       PRES   REMARKS
GRAND ISLAND   CLOUDY    28  22  78 SW9       29.91S WCI  19
AURORA         CLOUDY    26  22  85 SW8       29.91F WCI  18
HASTINGS       SUNNY     32  24  72 W12       29.92S WCI  23
HEBRON         SUNNY     28  22  79 SW8       29.96F WCI  20
HOLDREGE       SUNNY     34  25  69 W15       29.93S WCI  24
YORK           SUNNY     25  21  86 SW8       29.92F WCI  16
$$

NEZ011>018-030>034-042>045-101600-
NORTHEAST NEBRASKA

CITY           SKY/WX    TMP DP  RH WIND       PRES   REMARKS
NORFOLK        CLOUDY    25  20  81 SE6       29.90F WCI  18
ALBION         CLOUDY    21  19  89 CALM      29.89F
BLAIR          CLOUDY    28  19  70 S9        29.97R WCI  19
COLUMBUS *     MOSUNNY   25  12  58 S6        29.93S WCI  18
FREMONT        CLOUDY    27  18  68 SE7       29.97R WCI  20
WAYNE          CLOUDY    24  19  82 SE9       29.93F WCI  14
$$

NEZ050>053-065>068-078-088>093-101600-
SOUTHEAST NEBRASKA

CITY           SKY/WX    TMP DP  RH WIND       PRES   REMARKS
LINCOLN        CLOUDY    28  18  66 S13       29.96F WCI  17
OMAHA EPPLEY   CLOUDY    28  19  69 S14       30.00S WCI  17
BEATRICE       SUNNY     28  18  65 S16       29.96F WCI  17
FALLS CITY     MOSUNNY   29  15  56 S9        30.04F WCI  20
NEBRASKA CITY  CLOUDY    29  15  55 S18       29.99F WCI  17
PLATTSMOUTH    CLOUDY    28  18  68 S13G18    29.98F WCI  17
$$

NEZ044-045-051>053-067-101600-
OMAHA AREA

CITY           SKY/WX    TMP DP  RH WIND       PRES   REMARKS
OMAHA EPPLEY   CLOUDY    28  19  69 S14       30.00S WCI  17
BLAIR          CLOUDY    28  19  70 S9        29.97R WCI  19
FREMONT        CLOUDY    27  18  68 SE7       29.97R WCI  20
MILLARD        MOSUNNY   29  19  65 SE7       29.99F WCI  22
OFFUTT AFB     CLOUDY    28  19  67 SE12      29.99F WCI  18
PLATTSMOUTH    CLOUDY    28  18  68 S13G18    29.98F WCI  17
WAHOO          FAIR      28  20  74 S8        29.96F WCI  19
$$




USA.gov is the U.S. government's official web portal to all federal, state and local government web resources and services.